Deelen, Netherlands

4:09 PM CEST on September 20, 2017 (GMT +0200)
Deelen Air Base

Weather History for EHDL - February, 2014

Change the Weather History Date:

Wednesday, February 5, 2014

  Actual Average Record
Temperature  
Mean Temperature 43 °F -  
Max Temperature 49 °F 43 °F 59 °F (2004)
Min Temperature 37 °F 33 °F 12 °F (2012)
Degree Days  
Heating Degree Days 22    
Moisture  
Dew Point 37 °F    
Average Humidity 74    
Maximum Humidity 87    
Minimum Humidity 59    
Precipitation  
Precipitation 0.00 in - - ()
Sea Level Pressure  
Sea Level Pressure 29.38 in    
Wind  
Wind Speed 15 mph ()    
Max Wind Speed 23 mph    
Max Gust Speed 36 mph    
Visibility 7.9 miles    
Events Rain    
Averages and records for this station are not official NWS values.
T = Trace of Precipitation, MM = Missing Value Source: Averaged Metar Reports

Daily Weather History Graph

Daily Weather History Graph

Search for Another Location

Airport or City:

Trip Planner

Search our weather history database for the weather conditions in past years. The results will help you decide how hot, cold, wet, or windy it might be!

Date:

Astronomy

Feb. 05, 2014 Rise Set
Actual Time 8:10 AM CET 5:31 PM CET
Civil Twilight 7:34 AM CET 6:07 PM CET
Nautical Twilight 6:53 AM CET 6:47 PM CET
Astronomical Twilight 6:14 AM CET 7:27 PM CET
Moon 10:24 AM CET (2/5) No Moon Set
Length of Visible Light 10h 33m
Length of Day
9h 21m
Waxing Crescent, 36% of the Moon is Illuminated
Feb 5
Waxing Crescent
Feb 6
First Quarter
Feb 15
Full
Feb 22
Last Quarter
Mar 1
New

Hourly Weather History & Observations

Time (CET) Temp. Windchill Dew Point Humidity Pressure Visibility Wind Dir Wind Speed Gust Speed Precip Events Conditions
12:00 AM 38 °F - 34 °F 78% 29.62 in 19 mi SE 11.2 mph - -  
12:25 AM 39.2 °F 31.6 °F 33.8 °F 81% 29.59 in 6.2 mi SE 12.7 mph - N/A   Unknown
12:55 AM 39.2 °F 31.2 °F 33.8 °F 81% 29.59 in 6.2 mi SE 13.8 mph - N/A   Unknown
1:00 AM 39 °F - 35 °F 78% 29.59 in 16 mi SE 13.4 mph - -   Partly Cloudy
1:25 AM 39.2 °F 31.6 °F 33.8 °F 81% 29.56 in 6.2 mi SE 12.7 mph - N/A   Unknown
1:55 AM 39.2 °F 30.8 °F 33.8 °F 81% 29.53 in 6.2 mi SE 15.0 mph - N/A   Unknown
2:00 AM 38 °F - 34 °F 81% 29.55 in 14 mi SE 15.7 mph - -  
2:25 AM 39.2 °F 30.8 °F 33.8 °F 81% 29.53 in 6.2 mi SE 15.0 mph - N/A   Unknown
2:55 AM 39.2 °F 30.5 °F 35.6 °F 87% 29.50 in 6.2 mi SE 16.1 mph - N/A   Unknown
3:00 AM 38 °F - 35 °F 83% 29.51 in 14 mi SE 13.4 mph - -  
3:25 AM 39.2 °F 30.8 °F 35.6 °F 87% 29.47 in 6.2 mi SE 15.0 mph - N/A   Unknown
3:55 AM 39.2 °F 30.8 °F 35.6 °F 87% 29.47 in 6.2 mi SE 15.0 mph - N/A   Partly Cloudy
4:00 AM 39 °F - 35 °F 80% 29.48 in 14 mi SE 15.7 mph - -   Scattered Clouds
4:25 AM 39.2 °F 30.5 °F 35.6 °F 87% 29.44 in 6.2 mi SE 16.1 mph - N/A   Partly Cloudy
4:55 AM 39.2 °F 30.8 °F 35.6 °F 87% 29.44 in 6.2 mi SE 15.0 mph - N/A   Overcast
5:00 AM 40 °F - 35 °F 75% 29.44 in 16 mi SE 15.7 mph - -   Overcast
5:25 AM 41.0 °F 32.2 °F 33.8 °F 76% 29.42 in 6.2 mi SE 18.4 mph - N/A   Overcast
5:55 AM 41.0 °F 32.5 °F 33.8 °F 76% 29.39 in 6.2 mi SE 17.3 mph - N/A   Overcast
6:00 AM 41 °F - 34 °F 69% 29.41 in 19 mi SE 17.9 mph - -   Mostly Cloudy
6:25 AM 41.0 °F 32.8 °F 33.8 °F 76% 29.39 in 6.2 mi SE 16.1 mph - N/A   Overcast
6:55 AM 41.0 °F 32.8 °F 33.8 °F 76% 29.39 in 6.2 mi SE 16.1 mph - N/A   Overcast
7:00 AM 41 °F - 34 °F 69% 29.40 in 19 mi SE 13.4 mph - -   Partly Cloudy
7:25 AM 41.0 °F 32.8 °F 33.8 °F 76% 29.39 in 6.2 mi SSE 16.1 mph - N/A   Mostly Cloudy
7:55 AM 42.8 °F 35.4 °F 33.8 °F 70% 29.39 in 6.2 mi SSE 15.0 mph - N/A   Mostly Cloudy
8:00 AM 42 °F - 34 °F 66% 29.39 in 28 mi SSE 15.7 mph - -   Partly Cloudy
8:25 AM 42.8 °F 34.8 °F 35.6 °F 76% 29.39 in 6.2 mi SSE 17.3 mph - N/A Rain Light Rain Showers
8:55 AM 42.8 °F 35.4 °F 35.6 °F 76% 29.39 in 6.2 mi SSE 15.0 mph - N/A Rain Light Rain
9:00 AM 42 °F - 36 °F 71% 29.39 in 14 mi SSE 15.7 mph - - Rain Light Rain
9:25 AM 41.0 °F 33.5 °F 35.6 °F 81% 29.39 in 6.2 mi SSE 13.8 mph - N/A   Overcast
9:55 AM 42.8 °F 35.4 °F 35.6 °F 76% 29.36 in 6.2 mi SSE 15.0 mph - N/A   Mostly Cloudy
10:00 AM 42 °F - 36 °F 72% 29.38 in 25 mi SSE 13.4 mph - - Rain Rain
10:25 AM 42.8 °F 35.8 °F 37.4 °F 81% 29.36 in 6.2 mi SSE 13.8 mph - N/A   Mostly Cloudy
10:55 AM 42.8 °F 35.4 °F 37.4 °F 81% 29.36 in 6.2 mi SSE 15.0 mph - N/A   Mostly Cloudy
11:00 AM 44 °F - 37 °F 69% 29.38 in 25 mi SSE 15.7 mph - -   Partly Cloudy
11:25 AM 44.6 °F 37.8 °F 37.4 °F 76% 29.36 in 6.2 mi South 15.0 mph - N/A   Mostly Cloudy
11:55 AM 46.4 °F 39.5 °F 39.2 °F 76% 29.36 in 6.2 mi South 17.3 mph - N/A   Partly Cloudy
11:58 AM 46.4 °F 39.8 °F 39.2 °F 76% 29.36 in 6.2 mi SSE 16.1 mph - N/A   Partly Cloudy
12:00 PM 47 °F - 38 °F 63% 29.36 in 22 mi SSE 15.7 mph - -   Partly Cloudy
12:25 PM 46.4 °F 39.8 °F 39.2 °F 76% 29.33 in 6.2 mi SSE 16.1 mph - N/A   Partly Cloudy
12:55 PM 48.2 °F - 39.2 °F 71% 29.33 in 6.2 mi SSE 19.6 mph 32.2 mph N/A   Partly Cloudy
1:00 PM 48 °F - 39 °F 61% 29.34 in 22 mi South 17.9 mph - -   Partly Cloudy
1:25 PM 48.2 °F - 39.2 °F 71% 29.33 in 6.2 mi SSE 20.7 mph - N/A   Scattered Clouds
1:55 PM 50.0 °F - 39.2 °F 66% 29.30 in 6.2 mi SSE 17.3 mph - N/A   Partly Cloudy
2:00 PM 49 °F - 39 °F 59% 29.32 in 19 mi SSE 17.9 mph - -   Scattered Clouds
2:25 PM 48.2 °F - 39.2 °F 71% 29.30 in 6.2 mi SSE 17.3 mph - N/A   Mostly Cloudy
2:55 PM 48.2 °F - 39.2 °F 71% 29.30 in 6.2 mi SSE 18.4 mph - N/A   Overcast
3:00 PM 48 °F - 39 °F 63% 29.31 in 28 mi SSE 17.9 mph - -   Scattered Clouds
3:25 PM 46.4 °F 39.5 °F 39.2 °F 76% 29.30 in 6.2 mi SSE 17.3 mph - N/A   Scattered Clouds
3:55 PM 46.4 °F 39.5 °F 39.2 °F 76% 29.30 in 6.2 mi SSE 17.3 mph - N/A   Overcast
4:00 PM 46 °F - 39 °F 67% 29.32 in 28 mi SSE 15.7 mph - -   Overcast
4:00 PM 46.4 °F 39.8 °F 39.2 °F 76% 29.30 in 6.2 mi SSE 16.1 mph - N/A   Overcast
4:25 PM 46.4 °F 39.8 °F 39.2 °F 76% 29.30 in 6.2 mi SSE 16.1 mph - N/A   Overcast
4:55 PM 46.4 °F 39.8 °F 39.2 °F 76% 29.30 in 6.2 mi SSE 16.1 mph - N/A   Overcast
5:00 PM 46 °F - 39 °F 69% 29.31 in 28 mi SSE 15.7 mph - -   Overcast
5:25 PM 46.4 °F 39.8 °F 39.2 °F 76% 29.30 in 6.2 mi SSE 16.1 mph - N/A   Overcast
5:55 PM 46.4 °F 40.1 °F 39.2 °F 76% 29.33 in 6.2 mi SSE 15.0 mph - N/A   Mostly Cloudy
6:00 PM 46 °F - 39 °F 69% 29.33 in 28 mi SSE 13.4 mph - -   Overcast
6:21 PM 46.4 °F 39.8 °F 39.2 °F 76% 29.33 in 6.2 mi SSE 16.1 mph - N/A   Overcast
6:25 PM 46.4 °F 39.8 °F 39.2 °F 76% 29.33 in 6.2 mi SSE 16.1 mph - N/A   Mostly Cloudy
6:55 PM 46.4 °F 39.8 °F 37.4 °F 71% 29.33 in 6.2 mi South 16.1 mph - N/A   Mostly Cloudy
7:00 PM 46 °F - 38 °F 65% 29.34 in 28 mi SSE 15.7 mph - -   Partly Cloudy
7:25 PM 46.4 °F 39.8 °F 37.4 °F 71% 29.33 in 6.2 mi SSE 16.1 mph - N/A   Mostly Cloudy
7:55 PM 46.4 °F 39.5 °F 37.4 °F 71% 29.33 in 6.2 mi South 17.3 mph - N/A   Overcast
8:00 PM 46 °F - 38 °F 65% 29.34 in 28 mi South 17.9 mph - -   Overcast
8:25 PM 46.4 °F 39.2 °F 37.4 °F 71% 29.33 in 6.2 mi South 18.4 mph - N/A   Mostly Cloudy
8:55 PM 46.4 °F 39.2 °F 37.4 °F 71% 29.33 in 6.2 mi South 18.4 mph - N/A   Overcast
9:00 PM 46 °F - 38 °F 65% 29.34 in 22 mi South 20.1 mph - -   Overcast
9:25 PM 46.4 °F 39.0 °F 39.2 °F 76% 29.33 in 6.2 mi South 19.6 mph - N/A   Overcast
9:55 PM 46.4 °F 38.7 °F 39.2 °F 76% 29.33 in 6.2 mi South 20.7 mph - N/A   Overcast
10:00 PM 46 °F - 39 °F 69% 29.35 in 25 mi South 17.9 mph - -   Unknown Precipitation
10:25 PM 46.4 °F 38.7 °F 39.2 °F 76% 29.36 in 6.2 mi South 20.7 mph - N/A   Drizzle
10:55 PM 46.4 °F 38.5 °F 39.2 °F 76% 29.36 in 6.2 mi SSW 21.9 mph 35.7 mph N/A   Mostly Cloudy
11:00 PM 47 °F - 39 °F 66% 29.37 in 22 mi SSW 20.1 mph - -   Unknown Precipitation
11:25 PM 46.4 °F 38.3 °F 39.2 °F 76% 29.36 in 6.2 mi SSW 23.0 mph 34.5 mph N/A   Mostly Cloudy
11:55 PM 46.4 °F 38.7 °F 39.2 °F 76% 29.39 in 6.2 mi SSW 20.7 mph - N/A   Overcast